Historique des stations

Station météo de Chailles

Altitude de la station : 86 m







Données météorologiques pour le 06/03/2021
Date
Heure
Températures Humidité Point de rosée Vitesse
du vent
Direction Rafales Windchill Pression Pluviométrie
Cumul
Date
Heure
Températures Humidité Point de rosée Vitesse
du vent
Direction Rafales Windchill Pression Pluviométrie
Cumul
06/03/2021 11:085.4 °C67 %-0.2 °C10 km/hNNE18 km/h3.71028 hPa0.0 mm
06/03/2021 10:535.0 °C69 %-0.2 °C5 km/hNNE16 km/h3.11028 hPa0.0 mm
06/03/2021 10:384.7 °C70 %-0.3 °C5 km/hE18 km/h3.21028 hPa0.0 mm
06/03/2021 10:234.0 °C71 %-0.8 °C5 km/hENE18 km/h1.91028 hPa0.0 mm
06/03/2021 10:083.4 °C72 %-1.1 °C11 km/hENE18 km/h1.31028 hPa0.0 mm
06/03/2021 09:532.9 °C74 %-1.2 °C3 km/hE19 km/h0.71029 hPa0.0 mm
06/03/2021 09:382.3 °C75 %-1.7 °C11 km/hNNE23 km/h-0.11029 hPa0.0 mm
06/03/2021 09:231.6 °C76 %-2.2 °C6 km/hE19 km/h-1.31028 hPa0.0 mm
06/03/2021 09:081.2 °C77 %-2.4 °C8 km/hENE21 km/h-1.81028 hPa0.0 mm
06/03/2021 08:530.7 °C78 %-2.7 °C8 km/hE18 km/h-1.91028 hPa0.0 mm
06/03/2021 08:380.2 °C79 %-3.0 °C8 km/hN24 km/h-2.91028 hPa0.0 mm
06/03/2021 08:23-0.1 °C80 %-3.1 °C6 km/hENE21 km/h-2.91028 hPa0.0 mm
06/03/2021 08:08-0.4 °C80 %-3.4 °C6 km/hENE19 km/h-3.21028 hPa0.0 mm
06/03/2021 07:53-0.5 °C80 %-3.5 °C8 km/hNE15 km/h-2.81028 hPa0.0 mm
06/03/2021 07:38-0.6 °C80 %-3.6 °C5 km/hNNE13 km/h-2.81028 hPa0.0 mm
06/03/2021 07:23-0.5 °C80 %-3.5 °C5 km/hNE11 km/h-2.81028 hPa0.0 mm
06/03/2021 07:08-0.4 °C79 %-3.6 °C3 km/hENE19 km/h-2.61028 hPa0.0 mm
06/03/2021 06:53-0.2 °C79 %-3.4 °C8 km/hNNE18 km/h-2.41028 hPa0.0 mm
06/03/2021 06:38-0.2 °C79 %-3.4 °C8 km/hNNE15 km/h-2.41028 hPa0.0 mm
06/03/2021 06:23-0.1 °C78 %-3.5 °C6 km/hNNE15 km/h-2.31028 hPa0.0 mm
06/03/2021 06:080.0 °C78 %-3.4 °C3 km/hNE16 km/h-2.21028 hPa0.0 mm
06/03/2021 05:530.1 °C78 %-3.3 °C3 km/hNE15 km/h-2.11027 hPa0.0 mm
06/03/2021 05:380.2 °C78 %-3.2 °C5 km/hNE16 km/h-2.01027 hPa0.0 mm
06/03/2021 05:230.3 °C77 %-3.2 °C8 km/hENE16 km/h-2.31027 hPa0.0 mm
06/03/2021 05:080.3 °C77 %-3.2 °C3 km/hNNE16 km/h-1.81027 hPa0.0 mm
06/03/2021 04:530.4 °C77 %-3.1 °C10 km/hNNE15 km/h-1.71027 hPa0.0 mm
06/03/2021 04:380.5 °C77 %-3.1 °C6 km/hNE15 km/h-1.61027 hPa0.0 mm
06/03/2021 04:230.6 °C77 %-3.0 °C3 km/hENE15 km/h-1.61027 hPa0.0 mm
06/03/2021 04:080.6 °C77 %-3.0 °C5 km/hENE10 km/h-0.81027 hPa0.0 mm
06/03/2021 03:530.7 °C77 %-2.9 °C2 km/hN11 km/h-0.71027 hPa0.0 mm
06/03/2021 03:380.9 °C77 %-2.7 °C5 km/hNNE15 km/h-1.21028 hPa0.0 mm
06/03/2021 03:231.0 °C76 %-2.8 °C6 km/hNE15 km/h-1.01028 hPa0.0 mm
06/03/2021 03:081.2 °C76 %-2.5 °C5 km/hNE13 km/h-0.81028 hPa0.0 mm
06/03/2021 02:531.6 °C75 %-2.4 °C10 km/hNE18 km/h-0.41028 hPa0.0 mm
06/03/2021 02:381.7 °C74 %-2.5 °C10 km/hNNE16 km/h-0.81028 hPa0.0 mm
06/03/2021 02:231.8 °C74 %-2.3 °C2 km/hNNE18 km/h-0.61028 hPa0.0 mm
06/03/2021 02:082.1 °C73 %-2.3 °C5 km/hNNE13 km/h0.21028 hPa0.0 mm
06/03/2021 01:532.3 °C77 %-1.3 °C6 km/hNNE13 km/h0.41028 hPa0.0 mm
06/03/2021 01:382.5 °C71 %-2.2 °C3 km/hNNE15 km/h0.71028 hPa0.0 mm
06/03/2021 01:232.7 °C70 %-2.3 °C8 km/hNNE15 km/h0.91028 hPa0.0 mm
06/03/2021 01:082.8 °C69 %-2.4 °C8 km/hN11 km/h1.11028 hPa0.0 mm
06/03/2021 00:533.1 °C67 %-2.4 °C6 km/hNNE10 km/h2.11028 hPa0.0 mm
06/03/2021 00:383.5 °C66 %-2.3 °C10 km/hNE13 km/h2.41028 hPa0.0 mm
06/03/2021 00:233.7 °C65 %-2.3 °C2 km/hNNO10 km/h2.71028 hPa0.0 mm
06/03/2021 00:084.1 °C64 %-2.1 °C2 km/h--3.11028 hPa0.0 mm


Minima :

Température : -0.6 °C
Humidité : 64 %
Point de rosée : -3.6 °C
Vent moyen : 2 km/h
Windchill : -3.2
Pression atm. : 1027 hPa
Maxima :

Température : 5.4 °C
Humidité : 80 %
Point de rosée : -0.2 °C
Vent moyen : 11 km/h
Windchill : 3.7
Pression atm. : 1029 hPa
Rafales max : 24 km/h
Cumul de pluie sur 24H : 0 mm

Chailles est une commune du département Loir-et-Cher (41).
La station météorologique du réseau de l'association la plus proche de Chailles est celle de Tour-en-Sologne
Site du propriétaire de la station : http://jmj41.com/meteo/



Icône Facebook Association Météo Centre Icône Twitter Association Météo Centre Icône Chaîne Youtube Association Météo Centre Icône contact Association Météo Centre Icône Insta Association Météo Centre